Location: Truman State University Observatory
(40.1787°N, 92.6006°W)
Time: 08:15:46
(UTC-05:00)

Amateur Radio Satellites - All Passes

Search period start: 25 September 2017 07:45
Search period end: 26 September 2017 07:45
Location: Truman State University Observatory, 40.1787°N, 92.6006°W

Satellite Date Start Highest point End Downlink Frequencies (MHz)
Time Altitude Azimuth
XW-2F 25 Sep 07:50:26 07:54:00 40° 287° (WNW) 07:57:32 145.980 - 146.000
CUTE 1.7 + AOD 2 25 Sep 07:50:54 07:54:46 34° 97° (E) 07:58:34 437.475
XW-2B 25 Sep 07:51:55 07:55:26 37° 287° (WNW) 07:58:56 145.730 - 145.750
DOVE 4 25 Sep 07:54:25 07:56:29 13° 295° (WNW) 07:58:35 437.250
XW-2A 25 Sep 07:56:18 07:57:57 13° 92° (E) 07:59:35 145.665 - 145.685
HO-68 25 Sep 07:57:25 08:04:17 46° 99° (E) 08:11:07 435.675
NUDT-PHONESAT 25 Sep 08:08:03 08:11:24 32° 288° (WNW) 08:14:43 437.300
XW-2C 25 Sep 08:13:54 08:16:47 21° 291° (WNW) 08:19:39 145.795 - 145.815
LilacSat-2 25 Sep 08:29:06 08:31:06 14° 294° (WNW) 08:33:05 437.200
CUBEBUG 2 25 Sep 08:37:42 08:42:25 67° 101° (E) 08:47:09 437.445
KAITUO 1B 25 Sep 08:40:35 08:42:33 14° 294° (WNW) 08:44:31 145.475/437.950
UWE-3 25 Sep 08:41:04 08:45:30 41° 98° (E) 08:49:55 435.000/436.395/437.385
CUTE-I 25 Sep 08:46:10 08:50:24 25° 295° (WNW) 08:54:38 437.470
STRAND 1 25 Sep 08:46:17 08:50:33 27° 265° (W) 08:54:50 437.568
SEEDS 25 Sep 08:54:48 08:58:58 70° 284° (WNW) 09:03:06 437.485
RS-15 25 Sep 08:58:46 09:08:40 27° 336° (NNW) 09:18:28 29.354- 29.394
TIGRISAT 25 Sep 09:00:01 09:01:41 12° 62° (ENE) 09:03:24 435.000
FO-29 25 Sep 09:04:42 09:10:11 53° 72° (ENE) 09:15:17 435.910
AAUSAT CUBESAT 2 25 Sep 09:12:00 09:16:07 80° 102° (ESE) 09:20:13 437.432
Oscar 11 25 Sep 09:17:54 09:21:49 33° 97° (E) 09:25:42 .
AO-73 25 Sep 09:20:38 09:25:07 53° 99° (E) 09:29:32 145.935
ZACube-1 25 Sep 09:24:32 09:29:07 67° 101° (E) 09:33:39 437.345
CUTE 1.7 + AOD 2 25 Sep 09:27:18 09:30:20 20° 293° (WNW) 09:33:22 437.475
XW-2A 25 Sep 09:27:41 09:30:46 31° 288° (WNW) 09:33:48 145.665 - 145.685
HO-68 25 Sep 09:45:28 09:51:47 35° 297° (WNW) 09:58:06 435.675
UNISAT 6 25 Sep 10:10:16 10:14:35 75° 76° (ENE) 10:19:03 437.425
CUBEBUG 2 25 Sep 10:16:08 10:18:27 14° 297° (WNW) 10:20:48 437.445
UWE-3 25 Sep 10:18:13 10:21:38 20° 294° (WNW) 10:25:01 435.000/436.395/437.385
DELFI C3 25 Sep 10:23:42 10:27:23 38° 98° (E) 10:31:01 145.870
EO-88 25 Sep 10:27:09 10:30:01 21° 95° (E) 10:32:52 145.990 - 145.960
TIGRISAT 25 Sep 10:33:28 10:37:46 66° 259° (W) 10:42:12 435.000
PRISM 25 Sep 10:33:58 10:38:02 74° 76° (ENE) 10:42:07 437.425
YUBILEINY 25 Sep 10:44:56 10:46:35 11° 73° (ENE) 10:48:14 435.215
FO-29 25 Sep 10:51:49 10:55:33 18° 267° (W) 10:59:09 435.910
Oscar 11 25 Sep 10:54:27 10:57:44 21° 293° (WNW) 11:01:00 .
QB50P2 25 Sep 10:57:16 10:58:55 12° 63° (ENE) 11:00:34 145.880/145.840
AO-73 25 Sep 10:58:10 11:00:52 16° 296° (WNW) 11:03:33 145.935
ZACube-1 25 Sep 11:02:44 11:04:48 13° 297° (WNW) 11:06:51 437.345
Max Valier Satellite 25 Sep 11:03:38 11:07:24 87° 278° (W) 11:11:07 145.860
RS-15 25 Sep 11:18:09 11:27:05 22° 12° (NNE) 11:35:45 29.354- 29.394
LO-87 25 Sep 11:18:46 11:19:52 11° 92° (E) 11:20:57 145.935 - 145.965
NANOSAT C BR1 25 Sep 11:28:57 11:32:08 22° 67° (ENE) 11:35:22 145.865
AIST 2D 25 Sep 11:36:11 11:39:43 77° 77° (ENE) 11:43:16 435.315
ESTCUBE 1 25 Sep 11:43:45 11:46:48 18° 93° (E) 11:49:50 437.505/2401.250
DUCHIFAT 1 25 Sep 11:55:31 11:59:22 36° 71° (ENE) 12:03:14 145.980
DELFI C3 25 Sep 11:59:30 12:01:48 15° 294° (WNW) 12:04:06 145.870
M-CUBED/EXP-1 PRIME 25 Sep 12:00:08 12:03:27 23° 65° (ENE) 12:06:35 437.505
EO-88 25 Sep 12:00:42 12:03:34 22° 290° (WNW) 12:06:25 145.990 - 145.960
NO-84 25 Sep 12:05:55 12:09:21 27° 129° (SE) 12:12:34 435.350 FM
POLYITAN 1 25 Sep 12:11:52 12:16:04 75° 75° (ENE) 12:20:19 437.675
EO-79 25 Sep 12:15:36 12:19:47 83° 75° (ENE) 12:24:02 145.935-145.965
O/OREOS (USA 219) 25 Sep 12:16:50 12:21:25 64° 66° (ENE) 12:25:59 437.305
BUGSAT 1 25 Sep 12:24:02 12:26:58 20° 67° (ENE) 12:29:55 437.445
QB50P2 25 Sep 12:30:00 12:34:10 60° 260° (W) 12:38:22 145.880/145.840
YUBILEINY 25 Sep 12:32:59 12:41:34 67° 92° (E) 12:50:09 435.215
LO-87 25 Sep 12:50:03 12:53:28 42° 286° (WNW) 12:56:54 145.935 - 145.965
NANOSAT C BR1 25 Sep 13:03:57 13:07:39 30° 263° (W) 13:11:24 145.865
ESTCUBE 1 25 Sep 13:19:32 13:23:45 41° 289° (WNW) 13:27:56 437.505/2401.250
SPROUT 25 Sep 13:23:16 13:27:29 54° 100° (E) 13:31:41 437.525
RS-15 25 Sep 13:32:09 13:43:43 48° 44° (NE) 13:54:38 29.354- 29.394
DUCHIFAT 1 25 Sep 13:32:20 13:35:08 17° 267° (W) 13:37:58 145.980
M-CUBED/EXP-1 PRIME 25 Sep 13:33:59 13:37:43 29° 257° (WSW) 13:41:16 437.505
Oscar 19 25 Sep 13:34:24 13:39:30 59° 73° (ENE) 13:44:37 437.125/150
Gurwin Techsat 1B 25 Sep 13:35:40 13:40:37 41° 70° (ENE) 13:45:35 435.225
VELOX 1 25 Sep 13:39:22 13:43:42 57° 101° (E) 13:48:01 145.980
NO-84 25 Sep 13:43:05 13:46:41 36° 323° (NW) 13:50:01 435.350 FM
AO-7 25 Sep 13:47:23 13:52:39 19° 50° (NE) 13:57:55 .
50 SAT 25 Sep 13:50:19 13:52:51 20° 96° (E) 13:55:22 437.505
O/OREOS (USA 219) 25 Sep 13:58:30 14:00:13 12° 263° (W) 14:01:56 437.305
BUGSAT 1 25 Sep 13:58:31 14:02:06 31° 263° (W) 14:05:44 437.445
PCSat 25 Sep 14:03:32 14:08:17 32° 109° (ESE) 14:13:04 145.827
SO-50 25 Sep 14:17:26 14:21:56 83° 303° (WNW) 14:26:27 436.795
UKube-1 25 Sep 14:30:38 14:34:32 33° 98° (E) 14:38:24 .
YUBILEINY 25 Sep 14:32:05 14:39:02 26° 293° (WNW) 14:46:03 435.215
DX 1 25 Sep 14:41:36 14:45:56 71° 102° (ESE) 14:50:15 434.975-435.025
ITAMSAT 1 25 Sep 14:45:34 14:49:07 19° 63° (ENE) 14:52:41 435.822/435.867
SPROUT 25 Sep 15:00:44 15:02:54 14° 296° (WNW) 15:05:04 437.525
Oscar 19 25 Sep 15:16:01 15:19:11 16° 269° (W) 15:22:22 437.125/150
Gurwin Techsat 1B 25 Sep 15:16:27 15:20:40 24° 266° (W) 15:24:57 435.225
VELOX 1 25 Sep 15:17:28 15:19:38 14° 297° (WNW) 15:21:49 145.980
50 SAT 25 Sep 15:22:49 15:25:13 19° 291° (WNW) 15:27:36 437.505
ITUPSAT 1 25 Sep 15:34:45 15:38:16 20° 94° (E) 15:41:46 437.325
AO-7 25 Sep 15:35:50 15:44:10 81° 70° (ENE) 15:52:30 .
RS-15 25 Sep 15:45:01 15:56:25 56° 249° (WSW) 16:07:14 29.354- 29.394
PCSat 25 Sep 15:46:38 15:51:35 36° 307° (NW) 15:56:35 145.827
SO-50 25 Sep 16:01:08 16:03:06 13° 322° (NW) 16:05:05 436.795
UKube-1 25 Sep 16:07:05 16:10:20 21° 293° (WNW) 16:13:35 .
BEESAT 25 Sep 16:09:08 16:13:46 46° 100° (E) 16:18:20 436.000
DX 1 25 Sep 16:20:18 16:21:30 11° 298° (WNW) 16:22:42 434.975-435.025
MOZHAYETS 4 25 Sep 16:21:44 16:26:22 65° 101° (E) 16:30:57
ITAMSAT 1 25 Sep 16:23:06 16:28:08 54° 259° (W) 16:33:13 435.822/435.867
CUBESAT XI-V 25 Sep 16:54:10 16:58:12 29° 96° (E) 17:02:12 437.345
ITUPSAT 1 25 Sep 17:11:43 17:16:15 42° 289° (WNW) 17:20:45 437.325
DOVE 4 25 Sep 17:19:56 17:24:11 50° 74° (ENE) 17:28:16 437.250
XW-2C 25 Sep 17:21:34 17:23:17 13° 65° (ENE) 17:24:59 145.795 - 145.815
AO-7 25 Sep 17:31:54 17:37:43 21° 268° (W) 17:43:34 .
LilacSat-2 25 Sep 17:35:17 17:38:07 20° 68° (ENE) 17:40:57 437.200
KAITUO 1B 25 Sep 17:45:21 17:47:55 17° 68° (ENE) 17:50:29 145.475/437.950
BEESAT 25 Sep 17:47:47 17:51:09 19° 296° (WNW) 17:54:32 436.000
MOZHAYETS 4 25 Sep 18:00:45 18:02:57 13° 298° (WNW) 18:05:07
KKS-1 25 Sep 18:02:37 18:06:58 52° 100° (E) 18:11:18 437.445
XW-2D 25 Sep 18:19:16 18:23:03 65° 76° (ENE) 18:26:53 145.860 - 145.880
STARS 25 Sep 18:20:49 18:24:47 32° 97° (E) 18:28:45 437.465
HO-68 25 Sep 18:25:50 18:32:00 33° 62° (ENE) 18:38:11 435.675
CUTE-I 25 Sep 18:26:43 18:31:58 66° 73° (ENE) 18:37:14 437.470
XW-2F 25 Sep 18:29:48 18:33:37 81° 77° (ENE) 18:37:29 145.980 - 146.000
CUBESAT XI-V 25 Sep 18:31:37 18:35:27 26° 292° (WNW) 18:39:16 437.345
XW-2B 25 Sep 18:31:39 18:35:30 89° 77° (ENE) 18:39:22 145.730 - 145.750
NO-84 25 Sep 18:40:29 18:42:24 15° 26° (NNE) 18:44:15 435.350 FM
CUTE 1.7 + AOD 2 25 Sep 18:43:05 18:46:29 23° 68° (ENE) 18:49:54 437.475
NUDT-PHONESAT 25 Sep 18:45:35 18:49:20 85° 262° (W) 18:53:06 437.300
XW-2C 25 Sep 18:53:19 18:57:02 46° 261° (W) 19:00:46 145.795 - 145.815
DOVE 4 25 Sep 19:00:07 19:02:07 13° 268° (W) 19:04:05 437.250
Tancredo 1 25 Sep 19:00:11 19:02:50 74° 142° (SE) 19:05:31 437.200
LilacSat-2 25 Sep 19:08:49 19:12:11 28° 264° (W) 19:15:35 437.200
KAITUO 1B 25 Sep 19:18:16 19:21:39 30° 263° (W) 19:25:04 145.475/437.950
STRAND 1 25 Sep 19:19:40 19:21:36 12° 90° (E) 19:23:32 437.568
nSIGHT-1 25 Sep 19:26:11 19:28:29 18° 132° (SE) 19:30:49 .
BEESAT 3 25 Sep 19:33:42 19:37:41 72° 119° (ESE) 19:41:43 437.485
CUBEBUG 2 25 Sep 19:35:06 19:39:11 47° 73° (ENE) 19:43:26 437.445
UWE-3 25 Sep 19:37:31 19:41:16 29° 69° (ENE) 19:45:08 435.000/436.395/437.385
KKS-1 25 Sep 19:40:30 19:43:04 15° 296° (WNW) 19:45:37 437.445
AO-85 25 Sep 19:44:04 19:47:19 26° 113° (ESE) 19:50:35 145.980
SEEDS 25 Sep 19:45:12 19:49:24 72° 77° (ENE) 19:53:38 437.485
BEESAT 2 25 Sep 19:47:05 19:50:32 29° 114° (ESE) 19:54:03 435.950
XW-2A 25 Sep 19:57:23 20:00:46 68° 76° (ENE) 20:04:11 145.665 - 145.685
STARS 25 Sep 19:57:31 20:00:56 22° 293° (WNW) 20:04:21 437.465
AAUSAT CUBESAT 2 25 Sep 20:01:03 20:05:02 46° 73° (ENE) 20:09:00 437.432
CUTE-I 25 Sep 20:09:34 20:12:28 15° 269° (W) 20:15:22 437.470
Oscar 11 25 Sep 20:12:13 20:15:43 24° 68° (ENE) 20:19:13 .
HO-68 25 Sep 20:12:35 20:19:26 49° 260° (W) 20:26:21 435.675
AO-73 25 Sep 20:15:15 20:19:15 36° 71° (ENE) 20:23:21 145.935
NO-84 25 Sep 20:17:06 20:20:05 61° 226° (SW) 20:22:54 435.350 FM
CUTE 1.7 + AOD 2 25 Sep 20:18:25 20:22:09 29° 264° (W) 20:25:54 437.475
ZACube-1 25 Sep 20:19:22 20:23:31 46° 73° (ENE) 20:27:48 437.345
ISS 25 Sep 20:26:25 20:29:40 73° 139° (SE) 20:32:56 437.550
Tancredo 1 25 Sep 20:35:54 20:37:32 15° 338° (NNW) 20:39:13 437.200
STRAND 1 25 Sep 20:56:09 21:01:18 76° 285° (WNW) 21:06:27 437.568
nSIGHT-1 25 Sep 21:01:29 21:04:35 45° 328° (NNW) 21:07:43 .
DELFI C3 25 Sep 21:08:47 21:11:44 21° 68° (ENE) 21:14:42 145.870
SO-50 25 Sep 21:10:38 21:12:22 12° 38° (NE) 21:14:07 436.795
BEESAT 3 25 Sep 21:13:40 21:15:43 13° 318° (NW) 21:17:46 437.485
CUBEBUG 2 25 Sep 21:13:49 21:16:07 14° 270° (W) 21:18:26 437.445
UWE-3 25 Sep 21:14:14 21:17:42 24° 266° (W) 21:21:17 435.000/436.395/437.385
AO-85 25 Sep 21:24:20 21:27:37 26° 311° (NW) 21:30:58 145.980
BEESAT 2 25 Sep 21:24:51 21:28:14 26° 311° (NW) 21:31:42 435.950
AAUSAT CUBESAT 2 25 Sep 21:38:34 21:40:42 14° 268° (W) 21:42:50 437.432
Max Valier Satellite 25 Sep 21:41:39 21:45:02 35° 72° (ENE) 21:48:28 145.860
Oscar 11 25 Sep 21:47:55 21:51:42 29° 264° (W) 21:55:31 .
AO-73 25 Sep 21:52:27 21:55:36 19° 268° (W) 21:58:48 145.935
ZACube-1 25 Sep 21:57:27 22:00:03 15° 269° (W) 22:02:41 437.345
FO-29 25 Sep 21:57:32 22:03:00 50° 101° (E) 22:09:05 435.910
UNISAT 6 25 Sep 22:03:13 22:06:24 18° 92° (E) 22:09:33 437.425
ISS 25 Sep 22:03:57 22:06:26 20° 339° (NNW) 22:08:57 437.550
TIGRISAT 25 Sep 22:25:32 22:29:34 28° 95° (E) 22:33:35 435.000
EO-88 25 Sep 22:36:35 22:40:11 57° 260° (W) 22:43:49 145.990 - 145.960
nSIGHT-1 25 Sep 22:39:47 22:41:32 14° 347° (NNW) 22:43:18 .
DELFI C3 25 Sep 22:42:55 22:46:19 27° 264° (W) 22:49:44 145.870
ESTCUBE 1 25 Sep 22:43:05 22:45:55 17° 65° (ENE) 22:48:45 437.505/2401.250
YUBILEINY 25 Sep 22:44:12 22:51:47 32° 70° (ENE) 22:59:21 435.215
SO-50 25 Sep 22:49:01 22:53:38 73° 58° (ENE) 22:58:16 436.795
PCSat 25 Sep 22:51:40 22:56:09 26° 49° (NE) 23:00:37 145.827
Max Valier Satellite 25 Sep 23:16:58 23:18:59 14° 268° (W) 23:21:01 145.860
LO-87 25 Sep 23:24:52 23:28:20 63° 76° (ENE) 23:31:51 145.935 - 145.965
UNISAT 6 25 Sep 23:38:48 23:43:17 46° 288° (WNW) 23:47:46 437.425
ISS 25 Sep 23:42:46 23:43:54 11° 359° (N) 23:45:02 437.550
FO-29 25 Sep 23:43:33 23:47:50 23° 294° (WNW) 23:52:29 435.910
Tancredo 1 25 Sep 23:46:59 23:48:19 13° 19° (NNE) 23:49:39 437.200
PRISM 25 Sep 23:50:45 23:54:45 60° 286° (WNW) 23:58:44 437.425
POLYITAN 1 25 Sep 23:58:55 00:00:52 13° 91° (E) 00:02:47 437.675
TIGRISAT 26 Sep 00:02:07 00:06:10 29° 291° (WNW) 00:10:12 435.000
EO-79 26 Sep 00:02:11 00:04:26 14° 92° (E) 00:06:41 145.935-145.965
QB50P2 26 Sep 00:15:49 00:19:10 22° 95° (E) 00:22:32 145.880/145.840
SPROUT 26 Sep 00:15:49 00:19:41 37° 72° (ENE) 00:23:37 437.525
nSIGHT-1 26 Sep 00:17:39 00:18:58 12° 8° (N) 00:20:17 .
ESTCUBE 1 26 Sep 00:17:55 00:22:18 49° 261° (W) 00:26:42 437.505/2401.250
SO-50 26 Sep 00:31:46 00:33:29 12° 252° (WSW) 00:35:11 436.795
PCSat 26 Sep 00:34:35 00:39:47 49° 248° (WSW) 00:44:58 145.827
AIST 2D 26 Sep 00:34:36 00:38:08 78° 283° (WNW) 00:41:37 435.315
VELOX 1 26 Sep 00:35:43 00:39:56 46° 72° (ENE) 00:44:08 145.980
YUBILEINY 26 Sep 00:40:31 00:48:57 56° 270° (W) 00:57:24 435.215
NANOSAT C BR1 26 Sep 00:48:04 00:52:07 41° 98° (E) 00:56:09 145.865
M-CUBED/EXP-1 PRIME 26 Sep 01:14:01 01:15:23 12° 98° (E) 01:16:45 437.505
DUCHIFAT 1 26 Sep 01:14:55 01:19:11 75° 103° (ESE) 01:23:25 145.980
ISS 26 Sep 01:19:03 01:21:25 18° 19° (NNE) 01:23:47 437.550
Tancredo 1 26 Sep 01:20:28 01:23:08 75° 38° (NE) 01:25:47 437.200
UKube-1 26 Sep 01:24:34 01:28:09 26° 68° (ENE) 01:31:44 .
POLYITAN 1 26 Sep 01:32:44 01:36:56 53° 286° (WNW) 01:41:06 437.675
DX 1 26 Sep 01:36:12 01:40:26 56° 73° (ENE) 01:44:41 434.975-435.025
EO-79 26 Sep 01:36:19 01:40:27 48° 287° (WNW) 01:44:33 145.935-145.965
BUGSAT 1 26 Sep 01:40:05 01:43:58 35° 98° (E) 01:47:53 437.445
Oscar 19 26 Sep 01:47:20 01:51:15 21° 94° (E) 01:55:05 437.125/150
50 SAT 26 Sep 01:50:43 01:53:59 66° 259° (WSW) 01:57:17 437.505
QB50P2 26 Sep 01:51:12 01:54:57 30° 290° (WNW) 01:58:41 145.880/145.840
SPROUT 26 Sep 01:52:50 01:55:42 18° 267° (W) 01:58:36 437.525
nSIGHT-1 26 Sep 01:53:14 01:56:07 28° 27° (NNE) 01:59:00 .
Gurwin Techsat 1B 26 Sep 01:53:27 01:56:48 17° 92° (E) 02:00:07 435.225
VELOX 1 26 Sep 02:14:02 02:16:36 15° 268° (W) 02:19:11 145.980
NANOSAT C BR1 26 Sep 02:24:42 02:27:29 17° 294° (WNW) 02:30:17 145.865
O/OREOS (USA 219) 26 Sep 02:28:18 02:32:48 84° 110° (ESE) 02:37:22 437.305
ITUPSAT 1 26 Sep 02:40:57 02:44:39 23° 66° (ENE) 02:48:22 437.325
M-CUBED/EXP-1 PRIME 26 Sep 02:47:02 02:49:58 30° 294° (WNW) 02:52:51 437.505
DUCHIFAT 1 26 Sep 02:53:47 02:54:12 10° 298° (WNW) 02:54:37 145.980
ISS 26 Sep 02:54:58 02:58:16 89° 50° (NE) 03:01:34 437.550
UKube-1 26 Sep 03:00:29 03:04:05 26° 264° (W) 03:07:42 .
BEESAT 26 Sep 03:14:43 03:19:18 50° 72° (ENE) 03:23:55 436.000
DX 1 26 Sep 03:15:09 03:16:56 12° 269° (W) 03:18:43 434.975-435.025
BUGSAT 1 26 Sep 03:16:03 03:19:04 19° 293° (WNW) 03:22:05 437.445
MOZHAYETS 4 26 Sep 03:22:38 03:27:09 57° 74° (ENE) 03:31:43
Oscar 19 26 Sep 03:25:51 03:30:44 44° 290° (WNW) 03:35:34 437.125/150
nSIGHT-1 26 Sep 03:29:28 03:32:28 34° 224° (SW) 03:35:27 .
Gurwin Techsat 1B 26 Sep 03:31:53 03:37:06 59° 288° (WNW) 03:42:19 435.225
AO-7 26 Sep 03:39:00 03:45:43 27° 95° (E) 03:52:23 .
BEESAT 3 26 Sep 03:51:04 03:54:43 33° 52° (NE) 03:58:18 437.485
RS-15 26 Sep 03:56:12 04:05:49 28° 102° (ESE) 04:15:28 29.354- 29.394
CUBESAT XI-V 26 Sep 03:56:46 04:00:45 28° 69° (ENE) 04:04:44 437.345
BEESAT 2 26 Sep 04:05:19 04:08:05 17° 45° (NE) 04:10:50 435.950
O/OREOS (USA 219) 26 Sep 04:11:32 04:12:52 11° 309° (NW) 04:14:12 437.305
AO-85 26 Sep 04:14:29 04:18:08 25° 49° (NE) 04:22:01 145.980
ITUPSAT 1 26 Sep 04:17:47 04:22:13 38° 262° (W) 04:26:41 437.325
ITAMSAT 1 26 Sep 04:36:16 04:41:24 55° 101° (E) 04:46:30 435.822/435.867
BEESAT 26 Sep 04:54:19 04:57:20 17° 268° (W) 05:00:21 436.000
KKS-1 26 Sep 04:59:52 05:04:03 44° 72° (ENE) 05:08:16 437.445
MOZHAYETS 4 26 Sep 05:02:22 05:04:39 14° 269° (W) 05:06:57
STARS 26 Sep 05:16:54 05:20:35 27° 68° (ENE) 05:24:15 437.465
DOVE 4 26 Sep 05:20:01 05:22:13 14° 92° (E) 05:24:26 437.250
BEESAT 3 26 Sep 05:29:06 05:32:03 20° 249° (WSW) 05:34:56 437.485
AO-7 26 Sep 05:30:48 05:38:59 66° 293° (WNW) 05:47:08 .
CUBESAT XI-V 26 Sep 05:33:57 05:38:01 29° 264° (W) 05:42:06 437.345
BEESAT 2 26 Sep 05:42:10 05:46:05 48° 243° (WSW) 05:49:56 435.950
AO-85 26 Sep 05:54:24 05:58:39 40° 244° (WSW) 06:03:11 145.980
RS-15 26 Sep 06:04:40 06:16:59 81° 303° (WNW) 06:29:24 29.354- 29.394
ITAMSAT 1 26 Sep 06:16:50 06:20:24 19° 297° (WNW) 06:23:58 435.822/435.867
XW-2C 26 Sep 06:27:05 06:29:43 18° 94° (E) 06:32:19 145.795 - 145.815
STRAND 1 26 Sep 06:34:28 06:37:48 18° 63° (ENE) 06:41:08 437.568
KKS-1 26 Sep 06:38:05 06:40:49 16° 267° (W) 06:43:34 437.445
LilacSat-2 26 Sep 06:42:14 06:45:36 29° 96° (E) 06:48:55 437.200
CUTE-I 26 Sep 06:44:43 06:49:14 27° 95° (E) 06:53:44 437.470
KAITUO 1B 26 Sep 06:49:50 06:52:54 24° 95° (E) 06:55:57 145.475/437.950
STARS 26 Sep 06:53:13 06:56:50 25° 264° (W) 07:00:29 437.465
DOVE 4 26 Sep 06:55:58 07:00:08 51° 286° (WNW) 07:04:29 437.250
AO-7 26 Sep 07:26:03 07:30:11 15° 313° (NW) 07:34:19 .
XW-2D 26 Sep 07:26:13 07:30:01 77° 283° (WNW) 07:33:46 145.860 - 145.880
CUBEBUG 2 26 Sep 07:28:05 07:29:55 12° 89° (E) 07:31:46 437.445
SEEDS 26 Sep 07:31:27 07:33:06 12° 90° (E) 07:34:44 437.485
XW-2F 26 Sep 07:36:20 07:40:05 62° 284° (WNW) 07:43:47 145.980 - 146.000
